STARLINK-1304, 45376

Orbit data source: Space-Track

STARLINK-1304, 45376 is a payload satellite owned by SpaceX/Seattle (US) in LEO that was launched on Wed, 18 Mar 2020 UTC via an FALCON 9 launch vehicle from the Air Force Eastern Test Range (AFETR). Payload-class satellites include a variety of spacecraft equipped with specific instruments for various scientific and technological missions. These include communications satellites like Starlink; space stations such as the ISS; scientific satellites like the Hubble; Earth observation satellites from companies like Planet Labs, Umbra, and HawkEye 360; GPS; miniature CubeSats for education and research; and military/defense satellites.

Loading next visibility...
Identifier
45376, 2020-019S
Orbit
LEO
Country
Flag of USUS
Related business
Manufacturer
SpaceX/Seattle
Mission
Operational Commercial Communications
Bus & Motor
STARLINK, Unknown motor
Mass
260 kg wet, ~248 kg dry
Launch date (UTC)
2020-03-18 (6 years ago)
Launch vehicle
FALCON 9
Launch site
Air Force Eastern Test Range (AFETR)
Object type
Payload
Rocket body
Debris
Shape & HBR
Box + 1 Pan, 4.4 m
Radar Cross Section
13.562 m², Large (>1 m²)

Expand to show TLE details & history
Last TLE update: 2 days ago

TLE from 2 days ago
0 STARLINK-1304
1 45376U 20019S   25259.63462042 -.00000309  00000-0 -18995-5 0  9998
2 45376  53.0525 227.9848 0000891  97.1600 262.9490 15.06394667303496
Epoch: 2025-09-16T15:13Z
TLE epoch observation values (Epoch: 2025-09-16T15:13:51.204Z)
Latitude
-0.00004°
Longitude
3.69932°
Altitude
548.183 km
Speed
7.589 km/s
True Right ascension
15h 11m 56s
True Declination
0° 00' 00"
Sunlit
Object was in daylight at epoch
Visualization orbit readout
Latitude
Unknown
Longitude
Unknown
Altitude
Unknown
Speed
Unknown
Apparent Right ascension
Unknown
Apparent Declination
Unknown
Sunlit
N/A
Visualization observer readout
Local Sidereal Time
04:31:30
Azimuth
Unknown
Elevation
Unknown
Doppler factor
Unknown
Orbital elements
Apogee altitude
548.116 km
Perigee altitude
546.882 km
Semi-major axis
6,925.636 km
Eccentricity
0.00009
Inclination
53.0525°
RAAN
227.9848°
Arg. of periapsis
97.16°
True anomaly
262.93887°
Mean anomaly
262.949°
Eccentric anomaly
262.94393°
Mean motion
3.76577 °/min
Orbital period
95.6 mins
BSTAR
-0.0000018995
Loading maneuver chart data...
Computing Atmospheric mass density...
Loading historical data...
Loading historical data...
Loading historical data...
Loading historical data...
Loading historical data...
Loading historical data...
Loading historical data...

Documentation

Showing up to 5 results
|